Location: Anuling
(14.1239°N, 120.8922°E)
Time: 04:01:20
(UTC+00:00)

YAOGAN 1 - Pass Details

Date: 14 January 2026
Orbit: 605 x 607 km, 97.8° (Epoch: 10 February)

Event Time Altitude Azimuth Distance (km) Brightness Sun altitude
Rises 11:13:29 0° 187° (S) 2,851 6.3 -20.7°
Reaches altitude 10° 11:15:50 10° 197° (SSW) 1,949 5.5 -21.2°
Maximum altitude 11:19:36 31° 260° (W) 1,063 4.4 -22.1°
Drops below altitude 10° 11:23:22 10° 323° (NW) 1,950 5.3 -22.9°
Sets 11:25:44 0° 334° (NNW) 2,854 6.1 -23.5°
